Terminal Aerodrome Forecast
Issued by NWS

Home | Current Version | Previous Version | Graphics & Text | Print | Product List | Glossary On
Versions: 1 2 3 4 5 6 7 8 9 10 11 12 13 14 15 16 17 18 19 20
000
FTUS43 KGRB 191739
TAFAUW
TAF
KAUW 191739Z 1918/2018 05010G16KT 2SM -SN OVC020
     FM192000 05011G19KT 1SM -SN OVC015
     FM192200 05011G20KT 3SM -PL VCSH OVC010
     FM192300 05011G19KT 4SM -FZRA OVC010
     FM200300 05008KT P6SM OVC008 PROB30 2010/2011 2SM -FZDZ OVC003
     FM201100 06005KT 3SM -FZDZ OVC008
     FM201300 07005KT 1 1/2SM -FZRA OVC003
     FM201700 33004KT 2SM -FZRA OVC003=

USA.gov is the U.S. government's official web portal to all federal, state and local government web resources and services.